GFSSE_850_rhum_021.txt.gz
RH
76 83 82 78 66 50 42 42 42 43 38 28 18 15 11 7 11 14 15 15 16 18 23 26 25 48 50 51 52 54 48 53 78 51 24 23 43 64 64 64 65 66 53
73 81 81 78 64 49 44 45 45 43 34 19 15 12 7 11 13 15 16 18 23 25 29 42 48 48 48 45 49 52 43 45 47 42 45 33 25 36 44 52 60 55 52
80 84 85 76 63 50 50 50 57 46 26 15 14 8 10 12 14 16 20 25 26 26 26 35 40 45 46 41 45 47 48 48 48 47 48 43 26 24 32 38 44 47 50
90 93 90 79 59 53 55 54 54 38 20 14 12 9 12 14 16 19 25 27 27 27 27 31 39 48 49 46 47 52 53 54 51 51 53 47 38 25 26 32 42 52 53
93 95 90 80 59 59 62 61 50 28 16 16 11 11 14 16 17 23 27 28 27 30 36 33 42 46 48 49 49 50 51 55 54 56 48 43 40 35 28 30 29 34 39
90 96 93 77 60 64 68 62 36 21 18 16 12 13 16 17 20 26 28 29 28 32 40 40 36 40 38 37 33 45 47 48 51 43 42 42 40 38 35 27 34 34 32
84 99 90 70 70 77 73 46 29 19 18 15 13 15 17 19 23 28 30 31 31 32 40 44 40 37 40 39 38 39 39 43 42 38 39 40 41 41 37 34 29 34 42
100 100 96 92 97 93 62 36 23 16 20 16 14 18 18 21 26 30 32 33 34 33 40 41 44 45 47 52 47 47 46 38 34 38 42 40 39 39 36 35 38 38 37
88 97 100 100 100 83 50 38 30 23 12 17 17 21 22 24 27 30 34 35 34 34 38 46 50 55 56 58 56 46 39 38 33 30 40 41 41 39 36 39 41 38 38
99 95 92 97 86 80 65 50 44 19 18 17 24 24 26 28 32 34 36 35 41 48 50 53 58 57 56 58 58 50 47 46 36 34 33 36 46 50 45 46 44 43 40
99 91 87 86 75 72 59 50 30 20 20 28 29 27 36 32 29 31 36 46 46 55 60 60 59 59 62 61 55 49 47 42 38 37 39 40 47 61 49 46 44 48 48
93 80 76 61 61 63 53 41 28 21 33 34 49 61 60 48 37 46 50 49 56 62 63 63 63 64 63 56 51 48 43 39 41 43 43 44 51 54 56 56 48 55 57
100 77 62 72 73 66 57 34 27 31 63 69 75 75 65 63 61 65 61 64 68 68 67 66 67 66 58 53 52 46 41 42 44 47 47 51 50 53 62 60 54 53 59
77 83 65 65 69 69 48 33 43 68 83 82 79 72 64 56 57 64 75 75 71 69 68 68 66 64 62 58 48 41 43 40 40 50 47 47 46 48 66 77 65 64 64
66 63 61 69 74 66 36 41 66 86 88 86 77 72 70 61 69 73 76 76 74 69 67 61 53 57 54 44 46 48 46 33 38 49 54 53 49 46 51 65 74 96 89
58 54 68 62 56 46 62 78 73 83 82 81 74 69 75 73 77 69 63 64 66 63 53 44 44 43 46 49 52 54 54 44 52 54 54 52 52 47 53 81 98 97 98
59 63 62 54 52 65 74 74 82 74 71 74 72 79 91 87 76 72 74 71 63 42 37 40 42 46 51 53 59 59 47 53 52 45 45 43 40 49 63 82 77 92 88
62 67 65 65 70 76 78 80 85 85 88 75 55 59 69 72 76 72 68 58 36 39 39 42 46 51 58 61 43 56 66 65 56 52 48 45 44 57 84 81 83 76 68
62 66 75 71 72 70 73 85 88 82 81 61 56 61 65 72 57 42 35 36 37 41 44 44 45 50 45 34 43 50 54 54 52 52 49 47 43 43 43 50 63 53 42
67 75 82 73 72 73 76 92 89 73 62 59 56 53 52 42 32 34 37 38 41 37 32 25 19 20 16 21 26 32 50 61 62 59 51 46 47 48 47 44 41 39 40
68 74 74 68 71 78 84 85 71 59 60 57 50 43 35 32 35 38 37 40 35 31 24 14 11 12 13 12 14 40 58 58 60 53 54 52 47 48 47 42 41 40 42
58 71 79 73 77 82 80 77 68 56 58 55 50 43 38 37 40 41 40 39 40 36 26 12 7 7 8 18 28 50 63 56 58 59 58 58 53 45 42 46 35 38 45
71 58 52 67 68 72 75 75 60 62 59 55 50 44 40 43 46 46 41 42 39 28 12 8 7 6 12 25 46 63 71 67 66 68 65 65 55 55 42 33 28 35 48
70 63 35 43 61 74 80 76 62 56 53 48 43 41 41 47 54 44 41 40 32 19 8 7 7 14 30 58 76 80 82 80 75 70 63 63 61 42 43 37 38 34 30
68 63 50 59 72 84 83 73 65 58 54 44 49 46 50 54 55 42 39 30 18 9 8 9 21 39 62 64 64 71 70 63 62 65 65 63 59 53 51 45 44 46 44
68 64 64 63 67 79 74 67 63 71 66 57 58 55 54 56 54 40 32 19 10 11 29 14 35 53 62 67 50 54 60 70 70 74 72 72 69 65 61 59 60 51 47

GFSSE_850_rhum_024.txt.gz
RH
78 83 83 80 64 45 38 38 37 34 27 19 14 12 8 12 15 14 15 16 19 20 20 24 28 37 44 47 38 40 57 41 44 44 29 23 30 44 57 61 57 52 47
74 82 83 80 59 43 37 37 35 33 22 13 12 8 11 15 15 16 20 25 28 29 30 34 37 36 44 43 42 43 46 48 49 49 45 25 23 31 35 37 38 41 48
82 82 86 78 56 43 44 44 38 29 15 14 9 10 14 15 19 24 25 26 31 37 38 36 38 37 40 43 48 50 50 52 53 50 44 38 24 26 30 38 45 48 44
87 85 91 77 55 48 50 52 43 23 16 12 9 12 16 18 26 26 27 27 28 30 36 39 40 40 44 44 47 51 53 52 53 45 40 37 34 30 28 28 27 31 38
91 88 94 79 55 53 54 54 35 16 15 10 11 15 17 24 28 28 28 30 33 34 35 40 38 41 41 39 45 50 47 45 40 41 37 33 33 32 30 29 31 28 27
98 98 97 80 56 58 62 50 25 18 13 10 13 17 20 27 29 28 32 37 38 37 35 35 36 34 31 37 39 39 42 40 36 36 37 34 32 32 27 27 29 33 35
100 100 98 86 68 70 64 34 21 13 12 12 15 18 21 28 29 29 30 35 38 42 42 41 41 40 40 40 40 39 36 33 29 32 35 36 37 37 32 30 30 31 34
99 100 99 97 86 86 44 27 15 20 13 15 19 19 22 29 31 33 32 32 36 43 45 44 49 49 51 52 49 40 38 36 31 28 30 32 36 37 34 39 41 38 34
100 100 95 99 100 76 37 24 25 18 15 17 20 20 24 30 33 35 35 34 36 38 46 52 48 56 57 57 57 47 48 46 35 31 33 34 36 36 42 43 43 43 41
90 97 96 90 93 76 44 26 22 20 18 22 20 23 27 31 34 37 35 34 34 46 42 51 57 59 60 59 56 53 51 47 36 35 38 41 53 83 42 43 39 37 45
100 94 99 98 82 72 51 40 31 25 19 22 24 29 30 31 34 36 37 37 44 45 50 56 61 63 63 61 56 52 48 44 38 40 39 42 62 96 70 47 44 46 50
87 89 82 84 82 72 72 57 33 18 17 28 28 28 30 30 31 35 45 51 58 58 62 65 64 66 64 59 52 51 48 44 45 45 46 48 44 84 81 51 51 55 56
87 100 100 97 90 77 67 43 21 19 34 32 37 50 44 33 32 40 55 60 63 69 68 67 68 66 62 57 58 54 43 42 38 44 48 48 50 50 90 64 72 65 67
53 51 51 53 65 60 50 34 21 26 34 59 60 62 62 57 55 64 68 72 72 69 69 68 67 65 64 58 46 43 45 43 35 39 52 51 49 47 60 68 77 82 76
58 60 61 67 66 56 48 33 29 53 68 72 73 70 65 64 69 72 76 75 73 72 69 66 56 53 48 44 48 50 48 39 28 37 49 54 53 51 65 69 84 95 94
77 59 64 69 70 68 46 37 48 74 80 83 80 75 72 78 81 81 77 72 66 66 59 48 41 41 45 50 52 54 49 32 34 31 32 30 38 40 48 70 86 97 98
64 60 62 70 84 65 39 46 82 87 87 84 77 75 83 85 86 74 64 65 70 61 37 38 39 42 45 50 56 42 35 42 36 36 35 34 36 38 43 74 88 87 88
63 66 72 75 65 50 56 71 76 84 85 84 80 75 85 91 85 76 74 72 59 36 37 40 43 44 43 39 24 35 43 46 47 50 51 47 45 45 64 79 80 79 73
59 65 71 63 52 57 76 82 86 80 77 82 80 77 73 78 81 77 67 46 37 40 42 42 35 24 18 20 28 36 44 52 57 59 57 51 44 45 45 45 47 45 40
69 65 64 62 67 75 78 79 83 86 86 90 72 64 71 74 77 57 38 39 40 41 38 31 23 18 17 23 25 29 47 60 58 59 55 51 52 48 44 43 45 40 40
71 65 66 68 66 69 73 75 85 87 91 81 65 66 69 74 58 39 42 41 43 37 31 22 14 10 10 12 22 41 51 56 61 58 57 55 51 55 44 42 44 42 28
57 63 66 70 63 70 74 73 80 84 71 63 62 61 64 55 41 43 46 45 39 34 26 16 10 8 8 12 24 41 61 54 61 61 59 64 62 56 49 53 43 29 30
54 50 52 60 69 71 72 80 85 83 66 64 58 51 45 42 46 49 49 43 38 29 20 12 10 11 9 18 31 43 61 65 67 68 68 67 64 59 60 42 32 31 37
60 57 60 60 63 67 72 82 84 79 67 60 56 53 49 49 51 52 53 42 37 31 16 10 20 35 14 25 48 53 60 76 76 71 62 56 60 56 57 51 39 41 40
57 58 58 64 70 69 74 81 82 79 66 60 56 54 53 52 55 56 54 39 36 25 12 47 74 60 23 32 47 46 44 50 54 61 63 62 64 64 66 62 53 57 59
61 61 66 68 58 65 75 81 75 78 74 63 59 56 56 52 55 56 51 39 36 17 27 68 67 14 18 38 41 46 50 53 59 66 72 72 74 71 70 68 65 69 68

GFSSE_850_rhum_027.txt.gz
RH
88 82 71 56 48 47 48 46 44 40 37 30 19 10 10 15 16 15 15 16 17 25 33 40 43 37 34 42 52 40 44 45 43 26 22 22 26 28 30 33 36 54 83
92 85 78 62 49 46 45 45 40 32 23 16 10 10 15 15 15 18 20 22 26 30 32 35 36 35 38 40 43 46 46 48 45 40 24 24 26 29 31 34 33 32 34
95 87 81 63 49 46 47 44 34 22 15 11 8 15 15 16 23 28 30 31 32 30 30 30 33 37 42 46 48 50 51 48 42 37 34 58 30 26 27 26 30 37 38
96 88 82 60 51 51 50 42 28 16 12 9 13 15 17 23 27 29 33 32 29 29 29 32 38 40 41 46 50 48 43 40 39 31 34 59 40 26 25 28 27 26 26
95 92 82 60 54 56 53 40 22 14 11 10 16 17 24 26 26 26 27 28 29 30 33 36 38 34 39 44 41 40 35 33 32 32 50 51 83 33 28 30 32 34 31
96 95 88 66 61 61 55 34 18 13 10 14 17 20 27 27 28 28 31 33 33 33 34 36 32 36 37 37 36 34 31 28 26 32 47 36 55 33 31 33 36 38 40
96 100 94 74 74 72 50 26 17 12 12 16 17 25 28 29 34 33 35 36 37 38 39 38 41 44 44 43 39 37 38 32 28 29 60 77 65 35 36 38 37 35 35
84 100 100 96 90 91 45 24 18 12 13 17 18 27 28 32 34 40 43 42 42 45 46 47 50 53 55 53 43 47 47 40 32 32 46 83 41 41 38 39 40 42 38
97 99 100 97 98 90 56 26 18 16 15 17 20 29 29 31 32 34 41 49 47 47 52 55 57 58 58 56 53 52 52 49 38 36 49 80 60 50 39 39 37 38 44
100 100 100 100 91 71 43 40 25 16 18 20 24 30 32 35 35 34 34 39 47 51 55 59 60 61 62 60 58 54 55 51 37 37 46 79 75 75 44 42 41 48 52
100 100 100 100 65 54 43 39 26 24 24 27 26 28 33 37 38 35 34 39 48 54 60 62 63 64 63 60 56 56 54 44 40 38 42 43 67 84 65 53 53 51 54
100 100 100 86 67 53 44 41 31 37 32 26 26 29 33 40 38 38 41 46 50 61 64 65 66 66 63 60 58 59 51 39 38 34 41 47 48 88 66 66 73 64 58
94 100 98 84 75 74 60 44 54 52 31 32 30 31 34 37 36 38 47 52 65 68 67 67 67 65 62 62 60 47 39 40 38 30 40 47 50 52 74 64 79 77 69
99 96 87 86 77 71 75 67 38 38 37 31 34 36 34 32 37 55 58 68 70 68 68 67 67 65 58 49 42 41 42 38 32 29 38 46 49 51 82 64 75 83 80
99 99 100 94 84 77 76 45 34 40 33 38 53 58 61 57 61 66 75 75 71 71 69 66 54 43 39 40 42 41 37 30 20 30 34 35 36 46 56 59 87 91 90
92 86 82 79 76 78 64 50 28 32 48 75 75 72 69 70 72 75 72 72 73 68 63 52 35 39 41 42 42 39 28 17 18 18 20 23 25 32 48 63 83 97 93
61 66 62 63 65 68 50 38 32 58 71 79 78 74 75 77 82 80 78 69 66 68 51 36 38 38 37 40 38 22 22 24 22 24 31 30 33 35 39 52 65 72 81
59 64 70 79 84 84 60 38 42 72 82 85 80 79 80 86 86 82 70 70 72 55 36 39 38 36 31 22 19 23 29 36 45 50 47 46 45 39 53 72 78 80 78
63 58 66 70 78 63 44 41 76 84 88 83 83 85 81 85 88 82 78 72 56 38 40 39 33 23 17 18 20 25 36 47 54 55 54 52 48 46 44 43 42 45 44
61 62 70 73 74 64 48 62 68 80 86 88 83 81 80 83 85 86 74 58 39 42 42 34 24 16 14 16 19 28 36 46 51 54 55 53 52 48 50 43 40 41 42
59 64 66 66 62 54 59 73 81 80 81 84 81 86 77 82 85 80 65 42 44 44 37 29 18 12 12 17 22 31 33 45 55 56 57 59 61 61 53 49 52 50 36
58 65 68 66 61 62 71 74 78 79 83 77 88 83 74 79 81 77 52 48 45 41 35 24 13 11 18 27 27 29 63 60 53 56 56 59 66 63 56 58 51 36 31
60 58 58 61 64 61 66 71 73 79 85 86 82 69 67 70 70 64 52 52 46 40 30 16 11 35 56 57 52 38 54 51 57 58 65 64 65 58 58 56 52 40 40
57 64 65 63 65 73 67 72 69 69 70 72 68 64 64 61 52 46 51 53 49 36 25 13 47 66 60 47 39 20 23 29 57 53 66 58 50 55 57 62 63 56 49
56 57 58 61 65 71 73 70 68 71 76 78 73 64 58 52 48 46 49 53 51 38 28 24 66 66 68 69 38 21 30 36 42 58 49 57 65 67 70 64 64 64 63
57 59 61 59 62 63 68 64 69 79 78 84 77 64 58 56 54 52 54 56 50 38 30 59 69 74 80 56 20 22 39 58 60 63 62 63 67 66 68 63 65 68 70

GFSSE_850_rhum_030.txt.gz
RH
90 86 58 70 74 76 78 79 73 71 58 45 28 11 9 15 15 16 17 19 30 37 40 32 34 62 56 38 40 42 42 35 22 21 23 28 32 32 34 41 85 85 57
94 86 54 66 76 77 77 75 71 54 44 28 12 9 15 14 14 16 20 31 37 38 35 35 37 39 42 44 46 45 42 38 34 40 65 42 24 24 30 35 36 35 36
97 90 54 59 75 77 76 65 50 43 29 13 9 15 13 15 17 22 28 30 31 34 36 37 40 42 44 44 39 33 36 32 28 56 59 58 60 27 27 26 28 34 36
100 98 90 53 55 60 53 48 42 29 15 11 15 14 16 20 23 28 28 29 31 35 37 37 37 40 43 39 33 29 28 30 40 63 58 62 73 27 27 30 31 30 43
99 99 93 54 52 52 50 42 28 16 11 15 15 16 21 25 27 27 29 31 32 35 38 35 35 41 36 34 31 28 26 36 63 63 66 72 77 63 33 55 77 50 41
99 98 76 55 56 55 45 29 18 12 12 17 16 22 24 25 27 29 32 35 36 38 35 34 38 38 37 35 35 34 30 46 58 61 69 83 88 76 51 40 44 38 45
98 97 71 58 60 53 36 22 17 12 15 18 23 26 26 25 28 33 34 35 34 34 36 41 44 46 44 40 45 45 40 38 53 56 68 80 91 60 42 37 49 57 58
99 99 94 81 74 67 37 23 17 14 18 23 27 28 27 30 34 35 37 38 39 40 45 50 52 54 52 50 52 52 51 51 55 56 64 81 51 41 36 36 37 40 42
100 100 100 94 92 74 33 21 17 20 21 29 28 31 34 35 40 40 43 42 44 48 51 56 57 58 57 56 54 55 54 44 57 60 58 73 52 45 42 34 32 37 46
100 100 99 95 90 69 39 26 22 20 30 30 32 38 40 37 44 46 46 48 52 55 58 60 61 62 59 58 55 56 53 51 53 50 61 77 78 59 56 50 50 44 42
100 100 100 98 92 51 52 39 30 34 28 34 33 32 33 38 40 60 59 52 56 58 61 62 63 62 60 57 57 54 49 53 52 50 58 46 76 77 66 61 66 58 52
100 100 99 98 91 77 74 71 47 47 42 37 35 36 50 41 71 71 48 53 58 63 65 64 64 63 59 57 54 48 51 50 50 50 54 43 54 71 71 73 77 74 66
100 100 100 100 99 85 65 62 64 47 35 37 38 34 42 37 38 62 53 63 65 68 66 66 64 62 59 55 43 41 52 48 43 44 46 44 48 67 66 77 88 89 84
100 100 99 95 85 69 54 48 48 55 55 38 32 37 40 38 38 43 56 64 69 68 67 66 64 55 43 39 40 42 38 45 42 48 72 40 46 50 75 78 76 88 92
100 98 72 70 61 59 72 67 58 49 33 29 36 76 64 36 36 52 64 69 70 68 68 65 54 39 42 40 38 32 23 16 33 47 61 27 23 41 65 82 81 83 91
100 94 84 78 75 82 78 59 38 47 66 71 83 48 37 41 56 66 73 73 71 69 67 57 56 60 45 34 20 14 12 13 15 21 53 62 24 29 43 68 89 84 92
98 99 89 99 98 84 91 79 64 80 78 82 88 68 70 69 74 77 77 74 70 66 60 40 39 36 38 25 15 13 15 13 23 21 50 56 64 35 27 34 51 58 73
96 98 100 100 95 90 83 86 69 73 76 90 75 76 75 78 82 82 79 72 66 68 53 42 46 52 52 48 32 42 33 30 24 30 51 54 57 54 64 46 57 62 70
88 92 94 98 99 79 72 57 52 78 83 94 83 76 72 80 82 86 76 70 72 64 39 42 38 42 46 46 46 35 37 50 51 47 53 55 47 49 45 53 41 39 42
86 92 93 98 98 93 94 82 68 72 94 89 83 84 77 81 87 88 78 78 73 54 41 46 36 26 41 46 42 52 58 56 54 55 56 52 57 59 57 55 50 51 47
86 86 89 93 94 96 90 77 72 90 97 91 85 86 85 88 84 84 80 80 69 54 60 38 34 25 24 32 60 63 65 70 64 56 56 54 57 61 63 55 54 48 46
81 87 88 88 93 93 83 71 75 84 91 93 82 78 81 79 76 77 80 77 60 58 44 37 31 26 49 50 63 61 57 59 65 64 57 59 67 62 57 61 62 57 55
74 79 79 83 88 92 83 76 91 92 83 79 77 75 72 79 73 75 79 75 49 47 43 38 33 22 59 64 61 67 54 43 49 54 70 64 67 64 59 59 62 64 61
73 75 79 78 83 90 91 81 86 81 88 81 71 66 73 68 68 78 80 69 45 45 44 38 28 36 50 72 68 70 62 49 38 37 59 65 71 64 61 65 59 62 66
73 76 83 85 85 88 94 84 88 87 85 92 67 77 71 65 65 74 72 60 49 50 46 35 26 41 71 60 69 68 63 56 56 50 45 38 44 51 56 60 64 62 62
69 75 80 84 83 86 91 68 75 86 90 91 77 69 72 71 68 65 59 54 52 53 47 30 31 71 68 71 67 54 47 53 52 51 46 43 44 50 54 60 59 61 63

GFSSE_850_rhum_033.txt.gz
RH
74 74 73 86 98 83 81 76 68 65 64 53 36 9 9 12 14 15 17 26 37 34 45 70 50 40 39 40 39 36 26 26 54 43 27 31 38 45 59 64 87 92 82
80 71 75 99 96 87 84 77 70 70 60 41 15 8 14 15 16 18 31 37 34 35 58 46 38 42 42 39 37 33 30 44 56 59 58 45 25 26 28 33 37 37 39
89 94 87 99 96 92 85 78 73 68 45 22 8 15 15 15 19 31 36 40 36 37 39 40 42 41 36 30 30 31 33 54 56 56 57 68 66 28 30 30 33 30 29
85 93 86 98 98 89 86 78 75 49 29 9 13 15 16 19 28 31 37 41 38 39 40 42 42 39 33 29 26 28 50 59 58 58 59 66 81 40 58 46 39 66 63
90 94 89 83 85 87 83 80 52 36 14 12 16 16 21 28 29 30 33 39 40 40 38 43 39 36 32 32 29 32 57 59 60 62 71 78 83 68 44 69 81 52 58
92 96 69 74 84 86 81 55 42 22 11 17 16 23 31 32 29 31 35 39 39 36 39 39 37 37 37 44 39 33 51 52 53 59 70 84 91 68 47 49 68 70 69
96 78 69 71 82 70 55 45 27 13 16 17 23 32 33 31 30 31 35 37 34 36 40 43 47 45 46 49 49 42 40 48 47 57 72 86 85 41 34 31 34 36 38
99 96 71 68 63 57 48 31 17 14 19 23 33 32 32 30 33 34 34 34 36 43 48 51 54 52 54 53 54 47 40 50 49 55 73 87 62 56 36 30 31 35 36
100 99 84 83 72 50 34 20 14 16 24 34 35 28 30 35 35 38 37 39 43 48 54 56 58 56 56 54 47 41 40 49 50 55 61 82 48 54 56 52 43 37 40
99 97 91 87 76 47 37 32 24 22 54 37 40 36 38 39 38 41 42 45 48 51 58 60 60 57 56 50 48 42 49 48 47 48 69 87 78 72 66 62 58 52 42
100 100 98 92 86 64 37 32 30 37 39 44 47 46 48 47 53 64 54 49 51 57 60 62 62 58 52 50 45 44 47 50 43 48 66 48 68 75 74 70 73 68 60
100 99 99 96 77 53 58 56 69 58 43 66 59 49 66 48 63 57 50 52 57 61 63 64 62 54 54 50 49 47 49 45 41 49 42 44 72 71 77 77 79 76 75
100 100 100 99 74 70 64 57 62 62 86 80 76 81 68 42 74 49 53 57 65 66 65 63 57 59 51 51 47 34 48 41 39 52 40 35 47 77 67 80 84 79 82
100 100 99 98 86 63 75 81 80 89 76 61 43 44 37 48 68 68 78 78 68 72 68 71 59 47 35 33 28 32 36 41 40 50 60 24 26 46 67 81 86 84 85
100 100 100 95 89 93 90 100 89 71 46 39 44 40 36 66 80 77 76 77 74 76 72 73 55 62 52 53 52 52 48 48 43 42 57 39 18 36 66 84 86 84 93
100 99 98 99 100 100 88 69 56 53 48 50 50 42 77 76 82 80 74 77 74 72 72 67 62 60 54 56 49 39 28 41 31 30 50 58 32 26 46 87 82 80 93
100 98 94 92 79 66 54 58 53 55 58 64 63 74 86 76 77 84 79 76 74 72 71 64 47 56 56 50 47 45 47 43 48 50 47 55 58 46 28 37 54 65 73
89 77 78 67 77 67 67 85 84 71 69 64 73 75 91 93 72 75 79 79 77 78 73 63 62 59 55 48 47 45 48 48 53 51 52 51 52 57 58 46 33 44 55
91 93 94 92 86 88 84 82 74 70 65 73 76 79 90 95 85 84 81 83 77 76 69 65 63 57 54 47 48 50 54 52 56 46 52 56 51 44 46 48 49 41 37
90 92 93 97 92 91 84 82 74 66 72 70 87 91 96 91 86 84 82 85 70 76 71 66 64 53 50 48 40 45 60 60 57 56 57 54 52 58 57 57 55 54 50
80 82 79 81 84 88 95 78 63 62 70 82 88 86 94 88 86 80 84 84 74 74 68 72 63 49 51 46 58 59 61 66 63 60 58 54 52 57 60 60 59 50 47
71 76 74 76 78 78 73 66 60 58 63 75 83 92 93 98 84 70 87 82 77 72 72 65 52 54 51 58 60 62 63 62 66 62 57 56 58 62 57 58 60 61 58
66 68 68 71 73 74 71 66 59 58 67 71 88 97 99 84 84 90 85 86 84 73 76 51 42 46 51 62 61 70 59 50 48 54 64 61 59 67 66 58 59 62 63
62 69 70 68 67 70 71 62 59 63 64 72 84 92 97 76 72 91 90 91 85 80 70 62 55 55 45 61 75 74 74 69 50 42 53 62 68 69 67 65 62 62 62
56 61 68 67 66 67 74 72 64 70 71 71 81 98 96 100 89 94 92 92 90 83 68 59 54 45 36 70 70 76 71 64 61 57 50 45 57 53 51 54 60 64 63
51 58 64 65 62 64 70 79 74 74 77 67 77 94 96 96 79 92 89 88 87 80 65 66 58 35 45 75 79 78 62 52 52 54 54 49 44 43 45 52 59 59 59

GFSSE_850_rhum_036.txt.gz
RH
78 65 89 73 73 67 65 63 59 60 57 46 26 5 8 10 12 14 21 34 55 64 48 39 33 35 34 33 31 41 48 54 57 32 26 31 42 45 41 36 36 58 76
77 64 88 91 80 71 70 65 62 61 56 37 9 11 13 14 15 23 30 30 72 53 38 39 37 32 30 25 28 48 55 58 63 63 38 24 26 27 28 30 29 35 43
94 70 82 99 83 76 76 68 65 63 46 21 9 14 15 18 27 32 31 40 60 38 40 38 30 27 24 23 35 57 59 59 63 71 71 56 78 52 34 50 48 31 27
93 94 93 99 85 82 80 70 68 58 36 9 15 15 18 31 34 34 31 35 37 38 39 35 30 27 25 30 50 56 58 62 69 76 79 80 72 78 93 46 43 48 37
95 95 94 97 87 85 82 72 70 46 19 12 16 17 28 37 37 34 34 35 36 40 36 33 32 35 34 35 56 59 62 65 67 62 78 72 66 56 42 49 54 62 76
97 84 91 98 90 87 82 78 60 33 11 17 17 23 33 35 35 35 36 34 37 37 37 39 40 46 41 35 51 51 51 59 66 66 46 34 34 72 36 29 36 45 48
81 95 99 99 78 89 83 75 45 17 12 18 22 34 33 35 36 36 37 34 37 40 45 46 47 50 49 40 36 47 47 53 62 67 52 22 28 41 39 23 26 27 31
48 97 99 99 98 91 88 54 29 12 21 21 27 38 36 34 35 38 35 36 43 47 52 52 52 54 52 39 32 50 50 51 68 71 72 26 34 35 32 28 26 26 29
65 99 99 99 100 92 60 38 18 16 21 34 37 38 38 38 38 36 34 42 48 53 56 54 53 51 44 36 34 42 48 49 55 73 74 36 50 76 82 71 52 37 30
75 95 89 90 88 63 45 24 21 25 28 30 38 46 43 40 37 36 41 47 52 56 59 56 51 48 44 36 38 46 47 45 54 56 55 63 73 80 66 59 64 58 51
100 99 91 86 91 58 59 62 58 35 47 42 48 53 45 45 44 45 47 50 54 59 61 60 51 47 48 44 42 47 47 44 49 52 47 76 80 81 74 70 68 59 62
100 99 86 91 82 66 65 43 44 59 52 55 52 54 50 54 49 50 48 50 56 61 62 60 50 55 58 50 49 49 41 40 44 46 25 28 74 79 76 78 79 65 67
100 100 96 92 82 65 53 61 71 67 74 66 54 49 60 62 61 47 49 55 60 64 63 58 61 66 59 48 32 28 41 40 42 47 47 22 37 83 81 82 91 90 79
100 100 100 93 75 64 74 83 78 69 60 60 63 70 55 58 52 49 50 55 65 65 64 69 70 56 34 33 25 21 30 37 45 41 40 34 26 55 76 87 93 97 86
100 100 100 98 85 77 78 82 60 57 61 72 52 57 59 49 43 54 69 68 70 70 73 73 56 42 45 32 28 32 28 21 40 42 48 45 17 51 74 83 88 95 91
100 100 100 99 82 79 77 56 69 79 81 84 53 46 53 73 56 69 83 80 76 74 74 70 65 54 56 44 28 27 38 43 32 52 49 53 43 23 69 80 84 87 93
97 98 98 97 88 94 97 95 92 91 74 60 54 46 73 58 73 80 77 76 75 72 72 66 61 59 52 51 44 38 45 45 45 39 54 51 53 53 33 49 55 56 61
98 97 98 96 93 98 87 85 74 68 63 62 50 55 41 50 72 76 80 78 76 73 73 66 56 57 56 51 46 47 46 48 50 50 49 56 64 58 54 51 40 34 35
98 92 90 86 79 64 62 65 59 55 55 70 63 72 72 77 84 76 81 80 78 76 73 66 63 60 57 50 48 50 48 52 53 51 48 47 53 49 62 50 49 48 43
82 68 63 73 69 53 58 59 65 60 68 68 63 71 71 68 95 81 81 80 82 78 75 68 63 60 54 51 48 39 44 54 58 55 55 56 52 46 47 58 59 54 52
78 81 72 72 80 59 78 91 88 71 67 56 72 78 73 75 91 84 87 83 80 76 76 71 64 62 47 50 46 49 60 62 62 61 58 56 52 53 53 52 52 56 55
70 82 82 70 73 87 88 70 71 68 60 52 71 81 76 86 86 83 81 86 72 75 75 68 66 58 49 48 47 62 64 67 66 58 54 56 52 54 56 58 57 55 53
78 82 86 88 80 78 79 64 76 65 60 60 72 68 67 94 85 87 77 87 82 74 76 70 66 56 55 54 51 63 66 63 63 57 59 55 56 51 50 55 58 58 60
72 75 76 73 72 74 77 71 73 64 56 63 71 73 70 80 93 84 94 88 88 85 76 73 74 60 52 56 65 75 72 72 67 54 62 59 56 55 56 53 57 61 59
67 70 67 70 71 72 67 68 70 61 56 58 69 79 83 92 87 75 96 92 92 90 82 76 74 73 59 56 70 74 80 83 72 63 57 54 64 62 55 56 58 61 65
62 66 70 66 68 66 68 64 68 68 59 65 68 72 77 75 76 92 91 94 92 90 88 84 83 80 69 57 66 81 86 86 67 59 60 59 55 52 52 50 52 57 59

GFSSE_850_rhum_042.txt.gz
RH
93 87 74 66 67 57 46 45 49 41 24 10 10 12 20 16 12 13 16 28 36 29 23 23 26 31 40 48 54 50 36 25 26 25 24 24 31 40 53 69 82 85 82
84 76 71 74 60 54 50 51 50 33 10 6 7 8 9 12 19 21 33 32 26 28 29 31 42 53 59 67 71 75 63 54 25 21 27 68 42 26 29 39 47 94 87
71 82 64 83 65 57 52 52 47 20 6 8 9 11 14 20 24 35 28 26 23 21 22 43 55 61 66 72 77 79 77 60 43 27 36 35 95 95 55 40 44 67 97
84 80 62 83 91 56 54 54 37 9 9 11 13 16 20 25 30 26 25 22 22 22 27 43 57 66 73 77 72 72 67 66 60 22 29 59 98 99 98 94 96 97 88
65 69 74 55 83 68 59 56 21 9 12 14 19 22 28 30 27 26 26 26 28 28 29 47 61 65 63 69 67 68 70 54 21 18 18 32 93 97 54 58 61 50 69
60 65 64 58 73 74 68 51 13 14 15 18 27 25 28 26 28 29 31 34 37 37 39 53 62 57 58 63 68 68 66 61 45 14 15 21 33 46 36 25 27 47 41
90 84 89 84 97 80 74 60 14 18 19 30 30 27 27 29 32 34 38 40 42 40 37 56 57 52 55 63 69 68 67 60 24 15 17 27 62 91 67 29 25 24 29
80 87 89 78 84 97 90 30 14 21 30 35 30 28 29 32 35 39 44 44 44 44 38 39 51 52 58 64 69 67 63 56 50 25 18 21 39 62 51 28 29 36 31
92 98 97 94 62 95 93 27 18 22 32 37 35 32 32 35 38 44 48 46 43 48 44 29 32 49 50 53 58 61 56 55 48 46 21 28 62 87 84 55 43 36 26
88 81 76 99 99 90 81 39 21 21 33 38 34 32 34 38 42 48 51 46 40 45 38 31 28 38 51 49 49 48 49 52 47 41 22 48 97 96 94 95 86 54 43
81 80 90 99 95 84 94 36 26 23 37 41 44 40 38 41 46 50 54 55 48 39 40 39 33 36 47 48 46 45 46 45 44 36 20 30 80 99 100 100 85 73 57
98 87 86 60 99 99 90 52 37 52 50 51 53 46 38 42 49 52 55 57 56 42 45 47 44 39 36 38 40 43 42 37 36 39 30 35 94 97 98 99 99 96 97
100 84 78 85 92 85 63 42 38 44 49 56 48 44 39 45 48 41 41 57 57 49 48 52 48 46 46 43 32 34 32 34 38 37 38 32 79 96 98 100 97 98 58
100 100 98 99 94 89 71 41 39 54 42 46 44 38 43 45 38 37 39 48 61 59 48 48 46 45 53 46 27 27 29 31 37 39 42 41 63 81 99 99 100 96 70
99 100 100 99 98 86 64 57 56 51 52 47 44 43 40 36 42 44 41 55 63 63 58 47 52 51 39 31 24 24 29 30 36 39 45 46 41 34 86 89 99 98 97
100 100 100 100 100 92 83 66 68 67 55 49 46 41 44 41 45 42 49 54 63 64 64 60 51 45 39 30 31 26 29 34 36 40 43 44 44 33 58 85 92 99 96
100 99 100 97 87 78 60 50 58 68 61 58 56 49 45 56 50 51 58 56 63 68 71 72 62 48 41 41 36 33 38 43 46 49 50 46 46 46 42 50 76 67 58
99 100 100 98 89 73 58 55 76 60 58 66 51 44 49 50 53 59 56 73 71 75 76 73 62 54 48 46 44 42 41 43 47 52 55 52 47 45 50 48 45 47 47
100 100 99 98 92 78 80 79 71 61 55 48 47 39 45 59 70 57 63 72 81 78 75 73 72 63 59 51 47 45 45 44 44 54 57 57 51 47 50 49 46 44 44
99 99 100 99 90 87 84 84 72 59 50 50 48 45 54 62 58 56 60 62 74 76 76 75 74 69 66 53 54 51 48 47 43 51 60 60 58 54 47 47 46 45 46
98 99 100 99 94 90 87 81 76 62 52 51 50 46 56 66 61 64 61 56 69 77 76 75 75 75 67 59 59 54 50 50 43 52 59 61 61 59 54 50 49 49 49
91 92 98 99 96 84 75 73 66 60 55 56 54 51 51 57 65 78 76 63 73 79 79 77 78 76 67 64 58 55 51 49 46 57 59 61 64 62 57 55 52 52 53
81 80 79 80 80 77 72 67 71 73 65 65 55 54 52 71 70 80 78 72 76 75 79 80 81 78 72 67 63 57 54 55 60 61 63 63 64 63 59 56 55 54 55
58 71 73 78 87 76 78 79 75 70 65 60 56 57 64 70 68 67 75 77 74 80 79 84 86 81 77 73 67 66 54 53 60 65 63 67 67 66 64 59 57 57 57
42 49 57 74 79 61 60 64 64 61 61 57 60 59 59 63 52 74 78 65 67 79 84 80 88 81 78 75 73 80 59 63 63 67 82 76 77 69 68 62 61 61 59
42 41 42 50 54 60 62 57 55 54 53 54 53 52 44 38 49 63 73 68 73 73 71 74 85 83 79 77 79 81 79 79 74 72 80 76 84 87 80 63 62 64 65

GFSSE_850_rhum_048.txt.gz
RH
71 63 63 62 59 58 51 50 49 46 62 70 66 64 57 47 39 34 31 44 64 73 76 44 23 24 33 25 23 26 23 25 42 89 92 96 85 82 82 80 87 89 90
82 67 58 56 58 58 55 48 42 35 51 71 72 65 56 42 29 22 38 56 55 58 30 21 21 20 20 20 20 22 24 24 32 55 83 99 97 83 88 91 89 90 94
93 68 66 62 60 54 49 49 43 42 40 71 74 57 47 28 14 21 46 44 37 30 64 46 38 37 42 43 31 27 27 27 32 59 71 70 89 81 87 89 87 87 87
98 68 63 62 56 53 50 51 47 44 44 64 59 49 38 17 21 37 34 29 30 46 87 77 62 59 56 36 29 33 35 35 45 83 97 97 97 98 97 98 98 99 90
95 66 63 63 63 64 55 46 49 37 31 45 48 35 22 33 34 29 29 29 30 64 68 56 61 61 59 50 40 20 22 27 33 50 96 99 99 99 98 94 97 99 99
88 81 68 66 66 64 54 49 52 40 27 22 30 25 37 38 36 34 38 35 40 46 54 57 61 63 62 58 36 18 19 21 22 24 39 86 94 95 97 99 96 100 97
100 93 76 77 72 68 64 65 68 68 31 16 40 38 42 43 40 46 44 42 42 52 53 59 65 66 62 56 43 30 17 18 19 26 37 56 88 97 99 99 92 80 66
100 98 85 85 77 74 70 75 63 56 62 28 47 46 36 33 37 46 40 42 50 54 56 60 65 67 60 55 47 36 24 17 19 23 36 56 88 94 92 63 50 60 48
94 86 84 91 88 86 79 71 76 43 68 51 48 40 31 32 30 35 49 51 57 56 55 59 65 65 60 54 47 39 27 18 20 23 34 55 88 90 88 57 30 27 26
98 92 87 93 100 91 81 77 54 66 61 32 41 34 31 31 39 51 60 60 58 54 51 55 63 61 57 50 44 34 26 20 21 30 40 77 82 85 46 37 21 16 15
98 90 89 96 97 90 91 74 65 80 73 47 41 37 34 40 43 51 54 56 55 52 48 50 50 49 51 48 39 34 30 29 28 38 56 73 88 65 40 26 25 21 22
98 100 99 100 99 100 99 76 66 61 59 60 43 37 41 45 44 45 39 34 33 37 47 47 48 47 43 38 35 30 33 35 36 40 50 65 83 82 42 34 37 31 26
97 91 85 96 98 99 100 92 82 83 85 64 43 41 45 48 50 50 40 33 28 27 31 41 40 34 30 31 32 33 38 38 40 40 46 60 72 65 55 49 67 54 39
100 88 80 89 96 100 99 95 69 70 71 60 54 45 48 46 41 39 36 34 31 30 29 31 29 29 27 30 31 33 38 38 40 42 40 49 75 72 92 92 92 79 43
96 91 86 84 87 100 92 98 94 94 95 75 60 51 54 52 49 45 40 36 43 42 37 36 38 37 34 28 31 32 36 38 41 44 43 44 61 74 92 96 95 90 56
100 86 85 92 84 97 93 87 88 84 75 64 55 49 56 56 52 56 54 45 43 43 37 33 36 34 33 29 28 33 34 37 41 47 46 44 45 84 90 96 100 100 72
100 100 91 94 93 96 100 91 83 82 79 76 75 49 54 48 43 50 57 59 56 55 48 35 35 35 31 32 29 32 32 39 43 46 49 46 44 46 79 85 89 78 72
100 100 100 100 98 100 100 93 86 80 78 69 65 51 53 44 42 46 54 60 63 62 59 56 44 37 34 33 33 34 36 40 45 46 50 52 48 42 46 53 52 55 52
99 99 100 100 100 100 97 78 65 78 78 62 70 50 51 46 49 49 54 58 54 61 64 66 66 51 44 43 45 43 42 40 43 44 44 51 55 54 49 49 50 49 47
98 100 97 100 100 100 93 99 88 89 77 58 67 56 54 52 53 54 61 63 58 67 68 71 73 68 62 59 56 57 52 48 46 46 45 42 52 60 60 56 54 49 48
97 96 100 100 100 97 93 100 89 69 62 57 57 73 65 61 59 67 64 56 64 67 65 73 75 75 74 73 66 63 59 55 53 51 48 46 43 51 60 62 59 58 53
98 98 98 100 99 100 94 100 90 74 73 60 71 80 64 70 66 70 54 57 62 63 65 65 75 76 77 79 70 66 60 59 57 54 53 51 50 46 53 60 62 61 61
99 98 96 92 96 99 100 100 94 84 75 61 80 75 63 54 49 65 66 65 64 68 70 70 73 78 78 78 75 71 64 61 58 58 56 54 52 51 50 61 62 62 64
80 91 95 98 92 95 96 93 88 76 70 67 75 63 61 57 50 60 64 62 52 65 80 81 84 82 82 81 78 76 76 73 63 63 64 60 61 58 57 61 62 63 68
63 72 80 89 96 90 84 81 79 76 77 68 72 58 53 51 51 50 56 54 57 66 76 79 83 80 81 87 82 81 81 77 72 65 63 70 68 69 70 67 65 71 70
61 70 77 84 84 96 93 86 81 80 73 71 62 59 57 52 51 50 51 51 52 61 65 69 74 77 80 84 91 89 91 89 78 73 70 71 77 78 78 75 71 73 79

GFSSE_850_rhum_051.txt.gz
RH
78 69 64 54 48 50 38 59 50 58 56 64 58 46 43 39 39 41 44 41 68 88 100 99 98 99 99 70 81 72 78 81 82 79 84 79 84 80 84 90 90 88 89
77 65 60 65 55 53 54 55 58 64 68 64 58 50 46 46 38 46 44 53 76 96 93 94 96 85 62 26 26 33 57 78 84 83 85 86 90 88 92 86 90 92 96
78 66 65 67 64 57 55 57 64 68 71 64 62 59 50 44 44 48 46 61 70 67 50 66 64 50 30 23 22 21 27 37 55 70 81 93 96 90 88 87 86 88 85
79 78 65 64 60 60 54 49 57 74 69 65 65 62 52 46 51 58 65 60 55 46 69 57 35 33 25 27 28 26 27 39 50 59 89 91 94 69 65 66 67 72 67
99 68 64 60 63 60 49 51 61 68 67 75 68 62 44 36 50 58 51 47 69 94 98 80 45 26 28 27 26 26 34 60 88 95 99 100 96 99 90 62 50 49 46
96 80 69 66 64 60 50 47 47 63 66 72 65 51 34 33 47 51 43 67 86 98 98 62 54 46 32 20 26 31 36 42 64 89 74 92 95 98 64 41 45 53 37
98 84 76 78 72 59 54 57 82 54 61 48 51 42 28 69 55 72 77 88 86 79 66 63 57 46 25 18 19 24 26 27 39 76 92 93 93 95 80 38 36 36 56
100 80 87 79 72 66 58 50 53 50 48 53 41 30 48 71 76 79 77 66 60 62 64 62 58 47 41 26 17 18 19 18 26 70 92 94 94 60 46 33 20 13 9
99 98 86 76 71 72 55 49 59 70 64 50 31 29 67 76 77 77 52 59 58 60 64 61 56 52 43 31 21 17 18 18 23 53 91 92 72 60 37 22 18 12 11
98 98 96 88 81 86 79 74 77 79 73 70 50 39 75 66 70 53 58 57 56 60 65 64 59 51 41 32 21 17 18 20 25 42 89 88 82 94 74 46 24 19 17
96 99 98 98 99 97 88 90 77 66 71 81 54 41 63 58 64 54 58 56 53 58 63 62 57 48 41 33 28 24 25 30 42 75 92 96 94 97 78 28 24 23 24
98 98 96 97 98 97 93 93 87 68 76 77 67 38 37 38 46 52 57 56 51 52 59 61 47 47 40 36 32 34 32 35 38 79 94 98 94 96 63 30 26 25 24
97 99 84 85 81 94 100 98 75 67 71 88 61 37 38 49 54 55 56 53 52 52 52 50 49 46 37 32 33 36 38 38 43 88 96 99 100 98 95 58 37 34 31
92 97 100 91 76 99 100 91 75 75 85 87 47 42 42 44 46 41 41 40 43 44 44 45 48 34 35 33 34 38 39 42 43 65 89 98 100 100 100 100 78 50 38
97 88 92 92 98 100 100 93 93 86 88 84 44 45 43 43 45 39 32 32 35 35 40 34 31 27 28 31 34 38 39 42 45 47 89 79 82 94 96 100 100 88 48
95 88 78 79 84 100 100 94 89 82 86 77 54 46 48 48 50 41 32 33 34 32 31 33 34 31 28 29 33 36 38 41 46 47 47 50 64 90 90 95 96 97 75
98 86 85 82 82 100 100 96 99 97 83 74 74 54 49 48 48 39 37 37 40 44 41 39 37 32 30 30 33 35 36 40 44 48 48 46 45 62 88 87 88 85 82
100 100 98 92 86 97 96 98 89 89 77 72 71 53 51 48 48 48 44 43 45 48 47 41 38 33 30 32 31 34 34 40 44 44 48 51 48 42 44 69 72 70 72
100 100 100 98 94 95 91 99 96 98 83 81 69 69 55 57 60 60 56 56 55 58 61 56 45 37 32 34 34 34 36 38 40 44 46 50 51 52 50 48 50 51 52
100 100 100 100 100 100 95 96 100 97 90 78 70 71 62 59 60 59 60 62 62 65 69 71 69 56 45 44 47 46 46 45 43 44 44 44 46 53 57 58 55 58 52
98 100 100 100 100 100 100 100 99 91 84 84 68 72 69 59 57 58 58 61 62 64 65 70 73 72 67 63 61 60 59 60 52 49 48 48 47 46 46 52 60 60 58
97 93 100 100 100 100 98 95 88 84 79 79 65 70 77 60 58 57 58 62 68 67 68 64 73 74 76 75 74 71 65 64 65 62 56 53 52 51 49 46 52 58 61
98 96 94 97 99 99 96 89 86 86 94 90 80 78 68 58 60 58 60 69 70 60 60 62 59 64 75 77 78 77 68 68 66 60 58 57 56 55 52 52 52 55 61
64 96 99 99 100 100 99 100 93 87 81 80 64 60 62 69 69 58 67 68 59 62 60 61 75 74 77 79 80 80 79 75 72 69 65 64 64 61 64 64 64 59 60
56 69 90 98 100 100 99 96 97 89 72 64 57 54 55 62 59 59 57 66 64 56 67 68 64 64 74 84 83 85 83 78 75 73 85 71 69 67 70 74 72 71 65
59 55 72 81 91 95 100 98 99 91 79 73 74 58 62 82 63 64 60 56 57 56 62 69 70 61 71 80 85 92 89 84 82 81 82 90 72 70 72 78 78 77 72

GFSSE_850_rhum_054.txt.gz
RH
92 92 67 60 55 53 50 57 69 60 60 58 51 42 44 41 36 39 37 44 68 82 87 81 88 79 82 81 81 76 70 68 67 71 74 78 84 87 89 87 92 91 95
98 92 64 64 56 52 41 30 64 67 66 61 51 50 42 35 36 44 41 69 83 92 92 85 92 83 70 74 76 79 78 86 85 80 80 84 92 91 97 95 95 97 97
99 99 70 68 63 60 43 56 55 72 68 66 54 48 44 39 40 47 50 76 95 93 85 98 71 59 40 55 73 79 77 78 82 80 85 99 99 99 96 92 93 83 77
98 99 96 74 65 58 53 62 61 73 72 65 56 49 49 42 42 53 60 78 85 77 74 90 90 70 26 32 48 56 68 67 60 73 70 86 98 93 78 74 76 66 58
96 96 95 71 66 66 64 66 70 77 72 64 58 58 56 48 42 55 62 71 66 58 86 75 70 28 31 33 30 34 40 51 80 74 83 86 93 91 61 50 49 34 25
92 99 98 67 65 65 60 65 74 76 72 66 68 66 68 51 34 61 68 60 67 89 94 32 30 28 31 26 31 34 54 61 76 73 78 90 91 32 22 21 20 17 17
90 99 99 73 65 68 80 72 78 76 73 74 67 62 54 41 34 62 67 74 76 83 46 31 26 20 23 22 29 36 37 72 69 71 79 89 91 57 29 13 12 10 10
93 97 96 82 69 69 74 76 74 74 77 79 70 55 46 46 48 65 77 72 87 81 54 46 23 18 18 20 22 27 30 71 68 71 81 89 82 48 23 12 8 7 6
94 94 94 91 78 72 76 73 69 74 71 75 60 47 34 57 61 73 73 77 77 64 57 40 35 22 16 16 20 23 41 76 70 74 78 88 65 80 60 26 16 14 14
90 100 97 96 88 89 86 94 93 81 76 60 60 49 54 74 74 76 58 62 61 63 52 48 40 29 20 21 22 24 35 75 72 72 76 90 98 96 92 49 32 22 27
91 94 99 96 89 83 78 80 84 79 71 66 58 60 37 80 85 56 62 60 65 63 54 51 41 34 23 21 22 34 76 73 73 71 84 90 91 94 91 50 33 31 33
96 99 99 83 76 88 91 84 91 98 98 73 61 68 84 82 73 86 56 60 66 66 62 52 42 36 44 42 40 63 73 80 75 78 90 96 99 96 94 57 32 30 26
94 90 99 100 73 78 92 97 92 100 91 74 83 80 64 80 68 63 56 61 64 71 67 58 50 70 73 71 74 76 85 82 78 80 92 92 98 97 78 52 33 30 29
94 95 100 100 97 90 99 98 98 99 94 92 89 74 66 77 66 89 86 92 82 90 83 74 79 78 78 70 75 83 88 80 79 83 93 99 99 100 92 74 48 35 35
94 97 99 95 90 98 100 100 100 98 94 91 84 79 83 54 71 81 84 85 83 82 86 83 79 77 73 68 75 82 87 85 88 80 93 92 84 91 96 92 85 47 39
97 91 94 93 94 93 100 100 99 98 91 96 86 52 53 48 62 66 70 69 72 80 81 75 72 70 66 68 76 78 82 86 90 88 87 89 81 93 93 94 78 60 49
100 96 90 94 99 100 100 100 100 99 90 89 88 55 53 49 47 42 50 59 62 65 69 66 72 65 62 65 72 69 71 79 84 89 87 91 81 94 95 96 94 82 68
100 97 94 87 86 92 100 100 99 96 97 88 57 48 43 42 42 36 55 60 60 57 63 67 70 67 63 61 66 69 69 74 74 76 85 86 90 95 90 93 91 88 66
99 99 99 95 90 95 100 99 90 96 92 87 69 50 57 54 52 41 37 55 41 65 61 61 61 61 61 59 60 62 58 62 58 67 72 68 76 86 88 91 78 66 67
97 98 100 95 93 100 100 97 96 96 91 92 73 71 65 55 54 42 47 44 58 69 51 52 61 52 56 53 48 54 55 60 61 59 61 54 75 79 86 91 87 84 60
98 99 99 100 100 98 96 99 100 96 90 73 75 65 84 61 55 49 61 47 61 74 74 64 67 53 60 52 52 56 56 48 51 64 62 60 57 56 80 68 87 89 91
97 98 100 98 100 100 91 98 99 91 87 78 74 69 80 69 57 60 71 59 59 76 75 70 72 71 72 59 61 59 60 62 66 64 63 58 55 50 52 49 81 85 82
100 98 99 100 98 99 99 100 100 100 97 94 77 91 76 80 70 77 62 76 69 70 66 67 66 80 78 83 73 69 65 62 55 64 63 66 66 56 54 66 79 74 77
91 100 95 100 100 98 98 100 98 95 94 84 73 68 88 97 76 84 61 63 63 65 70 83 61 62 82 78 83 77 78 71 61 60 69 70 61 61 57 72 76 66 68
86 97 100 96 98 99 100 98 97 96 92 82 86 85 93 74 76 66 64 62 68 74 64 75 59 59 91 87 84 80 84 82 83 80 70 74 80 80 74 63 74 77 70
84 91 99 99 98 100 99 99 87 83 88 84 77 75 74 76 76 61 60 63 73 73 60 61 63 58 65 81 74 91 87 81 80 83 79 79 84 79 86 91 71 71 75

GFSSE_850_rhum_057.txt.gz
RH
71 67 67 60 62 66 64 64 60 51 50 52 47 46 47 46 40 42 39 42 58 70 74 78 86 86 81 64 66 69 67 65 70 72 73 77 84 87 90 91 90 94 88
82 87 68 62 61 61 57 61 64 57 55 55 52 48 46 49 41 45 41 42 76 79 83 86 82 88 79 73 71 74 66 72 73 72 78 85 84 91 94 92 97 89 86
86 87 68 62 65 83 76 70 66 58 57 59 54 52 44 50 49 42 45 71 77 81 83 85 83 84 73 68 70 68 75 70 70 84 92 98 95 91 87 85 85 80 72
78 84 83 61 64 86 75 67 66 79 61 62 54 54 42 50 66 65 65 82 79 76 76 40 60 58 66 68 73 75 76 70 67 74 89 99 99 88 82 72 73 67 64
89 83 92 67 69 78 69 62 76 67 70 65 57 53 48 70 74 71 77 85 77 65 48 52 31 29 33 60 63 69 61 69 73 73 82 94 98 98 73 71 56 47 41
84 82 93 83 68 67 65 62 75 76 73 72 73 53 63 63 75 79 53 81 72 35 36 74 20 21 32 45 48 50 60 72 64 68 82 90 96 81 42 28 24 20 21
89 88 86 92 73 68 74 79 82 80 89 77 68 55 51 64 62 72 77 66 38 24 44 25 22 27 34 39 42 58 66 62 62 72 79 93 93 62 51 28 21 16 15
96 85 91 97 85 71 72 88 80 87 90 87 67 61 58 57 66 83 65 54 54 33 22 22 22 28 37 42 55 58 64 61 61 70 82 94 92 82 53 24 20 17 12
94 86 89 95 90 75 77 84 79 94 92 82 69 65 53 55 72 72 74 83 69 41 33 20 19 31 38 44 41 59 65 63 64 71 80 90 87 68 46 20 24 18 15
95 81 91 96 96 81 77 89 90 99 92 80 74 68 56 49 47 75 82 86 67 51 33 22 17 28 23 28 33 60 68 66 66 68 80 91 84 60 35 17 22 24 26
98 82 84 95 94 90 98 91 90 79 96 88 77 63 55 72 70 75 86 83 63 50 37 30 24 18 19 25 32 62 66 61 62 70 89 96 96 89 40 36 28 29 32
99 89 86 93 94 89 96 93 99 84 99 85 74 70 73 69 79 95 78 70 61 47 43 36 29 20 38 34 63 70 66 65 65 77 95 98 90 90 50 29 25 24 26
98 89 94 93 77 86 89 93 96 93 91 86 86 72 71 71 78 84 74 69 61 55 50 44 32 55 68 67 76 75 72 68 67 80 90 89 96 81 49 28 26 26 28
99 88 90 99 82 72 85 84 86 99 90 88 89 74 76 77 72 78 74 78 67 66 57 43 60 68 70 69 75 78 76 64 70 86 94 98 98 97 78 41 31 30 31
97 97 91 99 98 76 68 69 90 88 97 98 82 82 84 86 75 82 82 87 85 84 81 74 73 72 70 72 75 81 75 71 75 83 95 94 93 96 83 89 42 35 34
90 100 96 100 99 91 83 84 86 98 98 92 88 90 86 85 74 84 85 84 77 74 74 70 70 70 65 69 78 80 77 77 75 81 92 92 90 90 96 87 55 47 42
99 94 99 98 100 99 97 98 99 100 100 94 92 82 69 62 80 82 81 73 67 68 69 66 71 64 59 66 72 77 78 80 78 80 87 97 93 92 91 93 89 65 53
90 95 93 97 89 99 98 100 100 100 100 100 90 81 92 70 82 79 72 68 66 68 66 62 63 58 57 59 67 70 70 76 79 82 76 86 91 99 90 92 92 86 61
92 90 92 88 84 88 91 99 100 100 99 97 93 82 69 91 82 71 65 59 60 62 60 61 63 59 56 55 62 64 64 66 75 72 76 82 84 87 83 75 73 79 76
98 95 95 97 85 90 98 100 100 100 99 94 67 79 86 86 66 58 61 61 62 59 60 62 63 61 56 54 51 57 60 58 59 62 69 74 80 86 86 93 84 75 79
100 98 98 96 92 98 99 100 99 89 97 80 76 74 59 62 54 47 50 48 62 65 62 62 65 61 57 55 48 51 56 60 60 60 63 65 67 77 84 84 89 83 84
99 98 100 99 99 98 99 100 93 94 94 71 59 68 60 60 51 49 48 51 62 68 69 75 71 68 56 55 47 48 52 55 62 62 62 64 65 70 76 84 88 89 91
93 98 95 99 100 97 100 99 97 99 97 89 77 70 69 64 79 57 62 76 52 68 79 84 86 79 68 68 60 55 53 48 52 61 60 67 66 69 70 72 86 88 86
84 99 98 99 99 99 97 99 96 97 98 84 77 69 73 65 59 57 74 80 74 71 75 88 90 89 75 69 79 66 67 70 65 62 65 65 70 70 66 71 71 75 85
75 96 99 99 99 99 100 95 99 99 90 81 80 73 72 77 63 75 76 84 85 84 80 80 88 84 83 69 70 77 79 77 75 79 74 72 72 74 73 66 68 71 76
70 83 99 93 97 98 99 98 99 98 95 90 80 76 81 86 79 83 85 85 81 83 82 80 81 83 78 79 61 80 82 83 76 76 76 73 74 79 86 78 80 82 88

GFSSE_850_rhum_063.txt.gz
RH
68 68 65 57 54 54 53 48 44 45 45 39 36 37 39 42 52 61 60 51 39 30 27 39 64 78 80 72 72 80 73 72 70 70 80 86 95 88 86 89 90 93 88
49 59 69 64 60 55 57 53 47 46 48 44 37 37 41 41 45 46 39 35 28 26 31 40 64 82 69 66 71 66 66 68 72 79 82 86 91 85 77 80 80 92 99
52 56 60 61 67 61 60 62 54 49 51 50 43 40 40 40 39 38 35 31 43 79 84 70 61 50 59 65 62 61 64 70 76 82 94 95 98 99 92 89 87 90 89
75 46 60 66 62 67 67 69 62 56 54 54 49 45 39 38 33 38 47 58 78 80 87 80 58 63 67 67 68 69 68 71 77 97 96 97 98 100 88 78 73 64 56
76 79 81 71 61 65 71 76 70 61 56 56 53 46 42 40 32 48 76 72 70 78 83 84 57 69 65 56 65 68 74 83 80 94 97 96 98 100 77 54 40 36 32
55 87 88 84 68 62 70 79 78 70 62 61 56 48 46 45 42 63 76 77 65 83 88 52 53 64 67 70 78 82 92 95 86 98 98 98 99 93 57 34 33 34 29
36 79 92 90 79 73 77 90 90 86 78 70 61 52 47 53 62 61 76 79 59 84 49 46 56 72 69 72 72 81 89 96 82 80 97 97 98 99 58 33 26 29 39
36 63 90 96 87 86 80 85 94 93 86 83 72 56 43 59 67 50 85 81 60 46 23 50 58 67 65 64 72 75 83 80 76 73 72 96 98 99 68 30 23 19 11
50 74 97 100 89 86 91 87 89 87 96 99 98 64 57 68 69 59 82 79 53 45 23 33 57 54 55 68 70 74 73 71 65 59 48 92 99 90 70 27 12 9 7
73 84 80 96 98 94 97 86 86 88 86 79 89 99 75 82 73 58 65 58 39 26 29 44 27 50 61 63 67 69 73 72 66 41 41 66 76 94 40 12 10 13 12
70 69 80 80 93 98 100 93 91 89 87 75 79 89 91 87 60 58 54 49 44 33 27 28 31 39 60 63 69 70 71 66 57 32 34 53 86 80 30 22 21 20 20
68 73 75 79 90 100 99 98 91 86 91 90 78 77 93 78 66 66 54 49 30 23 25 29 41 46 62 65 68 76 69 70 66 56 27 36 77 82 38 25 24 25 23
81 80 84 90 99 100 100 96 90 85 80 75 80 94 88 82 72 73 78 50 37 28 29 23 29 33 64 63 67 78 77 70 67 60 21 44 48 36 29 26 25 24 22
81 87 85 98 98 100 100 99 92 92 81 68 83 91 84 72 59 69 83 54 33 23 17 21 21 38 63 68 69 85 71 64 65 47 25 26 33 37 27 25 23 24 24
84 90 89 100 99 98 96 88 96 92 75 83 95 93 76 58 54 69 76 58 41 29 20 19 19 54 70 71 67 80 75 68 63 55 28 32 34 33 28 26 26 26 26
80 88 94 97 100 99 92 87 96 81 76 85 86 81 71 77 81 69 80 57 43 34 23 27 25 62 75 68 68 72 67 69 65 62 32 34 33 29 28 29 30 32 34
71 85 98 98 99 98 94 89 93 87 83 82 84 78 65 61 79 70 70 59 47 37 52 66 66 60 71 76 71 75 70 68 66 55 36 33 37 34 33 35 38 38 39
75 77 95 100 100 98 94 89 90 86 89 90 89 85 68 67 74 67 74 61 51 44 72 77 72 70 73 73 75 80 79 75 73 69 68 46 45 43 43 46 47 45 44
72 77 92 97 99 98 99 97 90 85 92 92 95 84 75 72 71 64 70 66 58 57 62 76 72 67 72 71 72 79 78 81 80 79 78 74 72 64 49 51 54 51 51
69 76 88 96 98 99 91 99 100 100 98 100 95 89 80 77 74 70 70 69 66 71 65 76 72 63 67 69 70 75 72 78 80 80 80 80 79 77 76 69 70 71 70
72 75 98 92 100 96 100 98 98 100 100 100 100 96 88 76 78 96 79 78 76 71 71 77 68 60 63 66 68 67 73 72 70 72 82 79 84 81 81 74 70 76 80
63 77 94 98 88 92 87 88 98 94 96 94 99 100 92 99 93 88 79 76 78 79 78 69 62 63 62 60 66 68 69 69 68 65 61 69 78 78 75 75 72 68 73
64 74 87 98 94 89 97 99 99 100 100 100 100 99 91 83 94 86 75 80 78 77 78 66 62 63 61 62 58 64 64 61 58 60 61 58 58 66 70 70 70 64 66
62 76 87 98 99 92 100 98 98 97 98 99 97 96 81 66 90 80 82 81 82 73 61 60 61 58 54 62 58 58 52 48 56 61 58 57 57 59 58 62 70 71 68
56 70 78 99 97 99 98 98 99 99 98 95 85 99 96 77 76 74 74 66 50 49 54 64 59 51 48 59 58 55 51 48 67 72 67 62 63 59 60 64 64 64 65
55 66 79 85 98 98 96 98 98 93 86 84 82 74 72 63 69 63 65 47 48 52 63 60 46 49 52 58 58 57 54 48 54 58 72 69 65 63 66 67 67 66 65

GFSSE_850_rhum_069.txt.gz
RH
55 56 59 50 49 48 46 38 41 63 60 58 62 69 76 69 65 62 61 61 59 54 49 49 50 62 68 75 87 86 76 73 78 83 84 85 88 88 88 86 87 89 87
40 37 45 56 52 48 46 40 42 53 53 58 63 69 72 74 75 69 64 63 57 52 48 48 56 61 71 77 83 77 74 76 84 87 91 93 86 88 90 89 90 87 84
29 25 35 56 56 52 48 45 43 43 44 53 65 72 78 79 76 71 70 64 55 46 41 47 64 73 74 70 77 73 73 74 85 86 84 88 99 98 97 98 97 90 93
32 29 30 45 58 57 51 47 46 44 42 42 54 70 74 73 74 73 69 56 42 35 37 74 82 89 75 75 78 74 73 78 87 85 88 97 98 98 100 100 98 99 91
30 31 32 38 50 61 59 52 49 47 47 45 44 50 63 69 70 62 49 39 36 35 55 70 80 87 76 75 79 76 79 82 82 80 79 98 99 99 94 79 68 70 86
23 26 31 41 52 64 65 60 54 51 51 48 44 44 48 55 53 45 39 37 40 44 75 79 80 78 76 76 76 78 85 84 83 78 80 98 100 91 71 52 41 38 44
26 32 45 51 64 66 71 70 62 55 54 53 43 42 42 44 43 40 39 67 77 75 79 76 73 78 75 77 77 78 83 81 74 73 79 98 98 82 50 39 28 27 27
36 42 57 71 72 83 73 78 75 65 58 58 51 48 53 41 38 42 77 83 81 78 73 75 78 75 76 79 78 76 79 78 77 78 77 86 89 55 60 34 36 37 28
45 50 56 87 92 90 85 83 86 87 89 81 74 72 91 61 47 65 73 76 74 74 70 78 78 73 78 77 78 76 70 71 71 68 52 84 88 95 62 44 43 47 24
50 46 55 81 92 91 87 89 89 99 90 98 94 94 85 83 85 73 76 75 71 73 79 77 78 70 82 79 74 79 78 77 71 66 37 81 99 98 60 59 30 24 16
52 56 66 72 79 80 79 87 86 94 96 65 72 90 94 82 84 87 78 76 74 52 76 84 88 91 92 80 78 77 71 69 62 53 37 96 97 94 94 63 49 21 16
46 57 72 73 76 78 78 87 86 93 99 72 81 89 84 72 80 86 82 79 80 62 79 87 90 86 78 75 79 72 72 63 50 35 38 94 86 86 78 78 43 24 19
50 66 73 74 77 81 84 88 91 94 97 91 81 97 76 74 93 93 94 82 84 88 79 83 82 78 73 72 76 71 63 42 38 30 64 87 74 82 65 43 28 22 22
50 61 66 74 81 82 94 95 94 97 100 99 100 90 74 73 69 82 91 86 66 91 77 76 82 75 69 71 69 66 64 65 39 29 68 81 60 96 70 45 24 19 18
54 55 60 73 81 90 96 94 99 99 100 100 92 98 91 82 83 84 85 74 44 69 74 76 81 72 74 72 68 67 70 67 64 33 36 66 67 69 59 28 21 20 19
56 51 51 69 79 93 92 94 97 100 100 100 100 93 89 81 86 69 90 64 45 54 71 63 79 73 74 74 70 69 71 70 65 41 28 30 66 72 34 23 22 22 22
50 48 47 64 90 92 87 90 99 100 99 100 99 96 91 83 92 74 83 62 43 45 46 57 76 76 75 76 72 72 72 72 70 56 33 27 28 27 27 23 23 26 28
55 50 49 56 85 95 85 88 96 97 96 93 99 100 99 97 90 68 76 45 38 33 30 44 72 73 75 80 73 73 75 74 72 67 46 36 27 26 24 25 30 32 34
52 54 53 52 78 98 81 89 81 99 100 88 95 100 100 96 92 85 69 44 32 27 26 43 65 71 78 77 74 75 77 78 72 60 51 41 33 28 27 32 33 34 37
54 61 57 49 75 92 96 92 88 93 92 87 95 95 98 95 90 89 78 47 32 26 28 32 50 71 74 76 78 77 76 76 76 63 58 42 41 38 35 36 37 38 41
61 63 55 45 75 95 91 96 100 96 93 88 93 94 91 90 86 81 82 60 40 27 22 23 51 72 75 80 80 80 82 80 82 80 76 62 62 58 55 48 47 49 53
58 60 58 51 61 88 83 83 93 98 94 96 96 99 96 95 83 77 87 79 44 28 22 22 62 72 71 77 82 81 92 91 88 87 86 83 79 79 72 69 66 61 61
62 57 59 50 54 86 91 92 91 95 94 98 98 100 100 99 89 94 91 84 51 33 36 30 62 68 58 74 79 79 89 89 87 88 87 83 81 78 75 71 67 64 64
57 60 63 55 55 79 94 97 96 93 98 98 98 99 98 99 88 96 93 91 67 40 53 60 63 66 63 71 78 82 76 67 74 81 76 79 77 73 67 66 61 56 56
57 58 64 61 58 66 96 98 97 99 98 99 99 96 100 100 92 88 94 95 89 64 59 75 79 74 71 67 66 74 69 63 57 53 64 60 68 67 66 60 53 54 54
61 63 69 64 61 75 80 92 99 99 100 100 99 99 99 100 97 97 96 94 91 84 72 67 73 76 73 67 63 67 62 61 57 57 62 55 54 56 54 55 58 58 58

GFSSE_850_rhum_072.txt.gz
RH
41 43 48 42 45 51 54 57 56 55 56 58 61 68 75 70 58 51 57 58 56 53 47 44 50 58 72 76 74 73 71 77 78 78 83 81 83 84 84 80 77 81 82
27 33 42 49 44 49 49 50 51 54 60 60 63 70 75 70 56 54 59 60 59 56 54 52 53 58 63 79 82 70 74 76 79 84 87 85 84 84 82 81 81 83 81
24 27 35 52 49 51 48 45 48 57 59 57 62 70 76 70 59 59 59 59 57 56 53 55 62 67 75 84 81 74 74 77 84 89 88 89 88 87 86 86 87 86 85
22 22 25 39 48 53 51 49 56 64 57 51 54 66 74 71 69 67 65 64 61 56 54 59 68 73 80 83 77 73 74 78 81 87 91 96 90 91 90 90 90 83 88
20 22 22 28 48 55 53 50 57 60 56 51 54 63 73 75 76 70 70 70 65 72 73 68 69 77 76 80 74 73 73 76 83 85 87 98 96 99 98 99 99 90 89
23 26 29 29 41 58 61 55 52 57 54 53 60 71 80 76 76 75 74 71 61 66 70 71 80 76 83 82 78 78 74 78 81 84 81 82 98 99 88 87 82 91 93
27 26 27 29 46 62 68 64 57 54 57 57 60 64 69 79 76 73 72 52 61 73 68 68 77 71 74 84 83 78 76 78 76 74 72 90 89 85 61 47 43 50 53
33 32 33 34 53 72 75 74 71 59 58 61 60 66 77 56 84 73 52 43 50 66 74 74 76 75 78 83 80 79 80 77 75 70 72 88 97 84 73 54 36 37 31
39 44 46 47 63 76 84 84 84 82 78 74 82 93 84 74 61 66 74 78 83 80 77 75 66 78 79 77 78 81 78 80 77 79 78 84 99 87 83 47 57 50 28
48 46 44 50 81 85 78 81 93 93 88 91 94 80 99 86 80 78 83 88 82 76 70 63 74 80 76 78 78 78 70 81 74 78 79 72 93 87 67 60 63 50 46
48 43 42 56 84 80 88 83 87 92 92 94 84 68 77 87 93 81 93 92 83 76 63 70 81 84 77 75 78 75 76 75 80 75 64 92 99 92 88 65 65 54 40
48 42 44 62 69 78 79 78 79 88 93 90 88 66 74 79 87 90 81 88 83 81 74 78 83 80 78 75 84 82 74 74 69 70 56 95 98 97 100 65 37 33 44
46 41 50 66 73 75 76 77 79 80 86 98 85 81 73 76 84 92 80 92 86 87 83 86 86 83 78 74 81 77 71 74 54 64 63 97 99 92 96 81 59 50 42
46 46 39 63 73 76 76 82 82 82 88 91 92 80 79 86 91 77 84 78 86 85 84 87 86 86 78 76 77 75 60 42 38 44 63 98 96 98 100 93 86 27 24
47 47 39 56 74 76 76 89 86 85 92 96 96 95 99 95 86 88 84 88 83 83 89 89 85 78 73 77 74 72 60 58 34 36 63 95 99 99 99 97 66 35 20
44 50 42 55 68 78 80 93 92 91 97 97 99 98 97 91 87 93 88 82 79 84 87 88 82 76 72 78 74 71 70 66 55 34 50 75 87 99 98 82 45 29 22
46 48 51 59 70 76 86 91 93 96 99 99 100 100 98 87 85 87 87 87 84 86 87 84 81 74 74 78 71 72 71 70 67 43 35 32 71 60 59 29 26 23 23
51 48 56 58 71 83 88 87 89 97 99 100 99 100 100 94 93 90 85 86 87 86 92 83 80 77 79 74 78 70 70 73 72 59 43 32 35 38 39 30 27 28 30
50 50 58 58 69 86 86 87 84 98 99 99 100 100 100 99 100 96 93 82 86 75 97 88 82 78 76 77 67 68 72 74 75 70 58 42 36 34 29 28 29 32 34
54 57 64 63 66 92 86 82 82 97 99 100 99 97 100 100 95 99 94 82 81 61 92 92 82 77 76 74 73 72 76 79 78 74 60 55 50 40 31 30 33 35 37
59 61 64 62 59 94 82 87 86 99 100 99 99 99 100 100 96 94 89 86 64 49 59 70 78 76 78 80 78 82 85 86 81 80 64 62 54 53 39 34 37 38 41
57 59 63 61 54 95 99 91 85 82 100 98 100 99 98 97 99 96 86 86 59 45 55 61 65 73 78 80 78 81 94 96 88 85 78 75 62 61 54 50 48 47 53
59 57 60 60 55 86 99 94 89 90 100 100 99 100 100 91 84 80 87 88 56 38 36 50 63 66 73 80 78 75 93 89 85 87 86 84 83 80 79 78 72 70 68
50 59 59 61 59 71 100 85 83 84 98 98 99 100 100 100 99 95 90 86 80 43 35 33 51 52 73 76 84 80 74 71 80 87 85 87 88 85 76 74 73 72 70
49 56 60 66 62 56 100 96 91 92 92 96 90 96 100 100 100 100 97 84 99 80 46 26 25 46 76 73 73 79 80 75 70 61 45 44 49 60 53 51 61 59 58
49 57 62 64 63 51 79 99 98 94 93 90 94 97 100 100 100 100 98 100 93 88 60 32 34 42 73 68 63 64 74 80 72 52 47 42 51 56 54 53 56 58 54

GFSSE_850_rhum_075.txt.gz
RH
30 31 26 23 26 37 47 56 71 72 67 64 66 70 70 70 63 55 57 62 66 64 57 58 59 61 63 64 65 70 79 83 86 88 80 82 74 75 76 78 81 82 82
28 28 26 28 27 32 42 55 64 67 65 62 64 69 72 72 64 51 54 63 65 74 56 58 63 74 58 60 68 70 82 88 83 81 81 82 77 74 79 78 78 84 82
17 19 22 26 31 41 49 55 59 63 62 61 63 67 73 73 64 50 52 60 61 82 83 78 74 61 58 66 72 70 75 81 86 86 85 87 87 82 84 82 82 81 81
21 18 18 20 30 43 50 53 56 63 64 64 66 69 74 74 64 52 55 59 59 76 73 66 68 62 73 80 71 66 73 79 81 80 91 91 87 85 83 84 85 84 83
18 19 19 20 29 44 49 52 51 57 63 66 71 72 73 75 63 57 60 62 63 63 70 71 72 75 81 84 75 68 75 80 80 80 94 92 92 87 86 84 83 85 90
20 21 22 26 30 45 54 54 52 54 56 60 68 75 76 76 65 61 64 64 65 63 65 66 78 75 85 81 74 75 78 81 82 87 88 88 91 92 93 90 89 92 91
22 24 28 36 45 55 61 62 58 57 57 54 58 72 82 76 70 72 73 74 73 63 62 79 72 84 78 77 70 82 81 83 80 84 87 95 98 99 92 92 99 99 94
28 30 32 37 54 65 67 68 66 63 63 56 58 72 79 78 79 81 78 83 74 59 73 70 68 80 76 77 80 83 83 83 82 83 82 84 89 89 72 65 74 82 88
30 32 36 40 50 71 79 76 77 76 74 74 72 79 92 93 98 88 85 80 68 70 70 76 76 72 75 78 86 85 81 83 80 75 78 88 98 94 71 37 32 36 43
35 39 43 45 53 69 80 86 88 87 83 79 82 84 86 94 88 98 82 60 66 67 73 81 82 73 75 84 86 83 81 78 78 77 87 79 97 81 71 56 31 31 36
42 42 39 43 48 67 87 83 85 92 92 88 84 82 80 68 67 73 76 74 83 83 84 87 83 72 79 88 86 79 76 79 84 83 91 77 98 99 99 80 54 29 26
41 44 38 44 50 72 86 90 86 84 91 94 91 85 78 67 62 68 79 86 89 75 81 88 81 77 88 88 83 74 73 78 83 82 90 77 97 98 99 94 60 51 46
43 44 41 38 51 68 80 81 82 79 79 94 96 96 87 72 68 68 74 92 97 95 88 88 90 89 85 80 78 77 73 76 77 74 82 90 98 99 99 93 60 61 47
51 47 41 40 49 67 73 77 83 81 77 70 75 91 88 70 73 83 73 88 93 98 93 88 90 82 80 71 74 73 74 80 82 79 61 98 97 98 96 96 78 59 44
54 52 43 41 43 67 70 77 85 84 80 83 85 91 79 79 78 67 89 90 96 90 93 91 86 80 79 74 79 73 71 57 50 74 96 99 99 98 96 99 69 41 26
55 54 46 41 50 67 72 80 87 90 81 88 100 98 88 95 83 73 89 88 97 88 87 86 84 85 81 77 75 72 63 54 48 74 86 97 99 98 97 98 85 58 42
57 54 50 46 58 60 78 85 87 85 90 94 96 89 92 90 91 89 91 94 98 84 91 90 92 91 79 82 76 69 70 66 57 54 72 96 99 99 99 99 66 68 61
61 54 52 53 58 64 73 82 88 91 92 99 92 93 99 96 97 100 91 94 100 82 98 92 96 84 78 82 78 69 73 71 68 46 52 82 96 98 99 83 55 52 41
57 56 49 60 57 70 77 88 86 89 95 100 100 97 100 100 99 99 97 92 96 82 99 93 91 81 79 82 75 75 76 75 73 60 48 59 83 93 94 70 41 30 43
55 53 52 60 60 77 84 91 87 94 96 99 97 98 99 100 100 99 98 92 96 97 99 95 86 82 78 78 78 78 78 82 78 73 68 60 65 65 64 71 65 54 39
51 54 53 60 65 78 92 91 89 92 99 95 96 100 92 99 100 100 98 97 96 94 85 89 87 82 83 81 80 83 87 85 81 81 78 70 60 57 56 53 46 44 42
45 50 55 57 66 79 70 95 98 94 97 98 100 98 88 98 100 99 99 99 93 94 84 92 89 84 84 81 82 97 100 96 90 82 83 63 57 49 45 43 42 42 44
46 47 53 55 64 71 89 99 99 100 100 100 98 98 89 100 100 99 100 93 86 89 71 86 85 85 85 80 80 86 97 86 88 86 83 76 74 55 52 50 48 49 52
46 51 57 54 64 74 98 97 97 99 98 98 99 100 100 98 100 100 100 96 90 88 65 64 81 85 77 76 84 79 73 71 86 88 81 80 84 74 73 76 73 72 73
53 52 61 58 65 70 94 96 99 99 98 98 99 100 100 98 94 94 83 77 87 81 56 44 49 72 76 76 78 85 77 73 68 66 81 78 83 81 60 63 59 60 64
57 58 64 60 65 75 87 98 95 89 93 95 98 99 99 100 100 100 93 86 82 85 52 42 46 59 70 72 75 77 76 74 73 69 63 60 63 57 43 38 44 49 48

GFSSE_850_rhum_078.txt.gz
RH
46 28 21 27 32 40 52 72 74 71 73 72 69 67 60 61 58 57 55 57 63 74 82 78 73 67 65 65 65 63 62 72 77 77 81 81 78 76 78 80 87 89 82
33 25 24 27 27 34 44 53 66 70 70 69 70 70 66 65 64 58 54 54 58 66 90 68 66 66 66 66 63 64 77 81 81 83 81 82 75 77 84 87 98 84 83
29 21 16 16 22 24 39 52 65 70 71 68 68 72 70 68 67 60 56 56 59 62 52 57 66 74 69 62 66 74 83 88 87 86 83 90 87 80 85 84 85 84 84
17 19 17 16 20 20 30 44 56 62 63 63 67 73 73 72 70 61 57 59 67 64 54 60 72 76 63 67 72 76 83 84 84 82 98 99 92 84 80 84 85 82 83
20 18 20 19 23 28 34 47 51 53 56 59 66 74 78 76 72 63 60 60 67 69 63 74 77 80 65 75 69 74 82 84 86 97 99 98 99 87 84 83 84 86 86
19 21 21 21 23 30 41 51 54 54 54 61 68 76 81 81 75 66 62 63 66 68 69 73 74 68 75 74 70 74 83 82 84 98 98 98 99 86 84 85 81 85 87
20 21 22 23 24 32 38 52 59 58 58 62 70 79 83 85 79 74 70 70 73 68 69 73 67 68 80 77 71 73 82 87 87 91 99 98 94 91 86 87 86 89 90
22 24 25 26 28 31 43 52 62 62 64 63 62 76 86 87 84 74 76 75 73 72 78 73 69 74 83 78 68 78 83 86 85 90 98 99 93 98 97 87 93 97 94
25 27 28 31 33 36 45 60 69 68 70 74 71 78 90 95 96 92 86 86 83 80 78 77 73 80 82 79 77 83 85 82 84 88 88 97 94 92 86 88 98 95 96
27 28 34 40 42 37 48 65 76 77 76 74 76 78 88 84 81 98 98 93 88 79 73 76 80 90 82 86 87 88 87 86 83 88 83 92 98 87 57 71 64 87 91
31 31 36 43 44 34 72 82 85 88 82 82 80 80 85 86 73 88 71 87 76 80 71 75 81 89 87 94 91 90 85 80 80 74 79 89 91 95 66 71 43 61 76
70 42 44 43 42 37 75 83 79 82 91 90 86 79 81 82 80 86 76 81 76 79 81 80 75 81 91 97 97 91 83 81 78 75 83 90 98 95 92 83 72 75 64
78 70 63 46 41 41 65 80 88 99 96 89 89 88 83 84 82 75 72 70 76 86 78 90 84 85 97 98 99 92 84 90 77 76 87 84 85 95 98 98 99 83 65
75 77 49 43 38 41 57 77 84 87 97 90 86 92 92 86 73 74 72 78 86 86 83 87 88 90 97 99 94 92 93 80 78 75 94 90 90 92 92 98 94 89 64
69 79 64 44 40 43 53 71 82 86 80 78 79 77 91 80 80 66 70 81 80 95 88 95 92 98 100 99 97 96 92 87 88 78 93 92 92 94 97 100 98 76 50
67 78 74 45 48 47 56 68 73 83 84 83 82 77 78 91 87 70 73 86 89 90 93 91 96 97 98 92 97 96 92 86 87 79 79 96 92 95 97 99 98 99 82
66 78 60 45 52 51 49 62 70 77 92 90 86 93 90 89 83 76 74 79 91 92 95 90 97 96 95 90 94 97 92 88 81 83 77 86 97 96 94 98 98 99 95
66 81 56 46 50 52 44 63 74 84 94 93 89 94 99 97 96 90 80 89 95 98 94 93 98 98 91 85 92 88 86 88 84 85 80 79 98 99 98 98 99 100 98
68 84 54 45 54 55 48 66 71 75 83 88 95 97 96 97 100 98 90 93 90 99 96 98 99 93 90 89 86 84 86 88 90 81 82 84 84 86 93 98 99 100 98
69 87 54 46 55 58 61 68 80 82 86 91 93 92 92 96 99 99 99 93 88 100 84 98 97 94 86 81 83 86 92 91 90 85 84 83 85 86 82 93 96 96 92
74 86 53 49 58 60 62 78 94 99 94 96 95 96 100 100 100 99 98 100 100 96 89 94 98 94 92 91 87 93 96 99 100 99 99 90 85 88 88 86 84 83 70
75 83 54 51 59 61 63 79 95 85 98 91 91 92 92 97 96 100 94 99 100 100 93 93 97 97 88 94 83 84 98 100 100 100 99 93 91 86 86 89 89 89 88
72 80 67 64 70 63 78 84 88 82 100 95 96 98 97 93 92 100 99 98 100 98 94 99 98 96 90 92 80 70 78 72 89 98 99 98 93 96 87 91 89 81 70
69 88 88 96 86 86 97 79 72 88 98 94 93 92 88 85 94 99 96 100 98 100 99 91 100 95 87 95 88 72 65 57 70 86 95 98 84 71 71 46 54 39 38
68 88 94 98 87 96 97 93 95 87 99 93 96 97 98 90 94 100 99 100 99 92 96 86 98 99 94 86 89 84 84 84 71 61 70 91 98 79 64 53 58 40 38
73 92 97 99 90 95 96 85 88 89 97 99 98 98 100 99 96 100 100 100 95 90 87 90 81 85 93 96 89 87 82 78 74 65 62 67 78 77 57 60 54 52 43

GFSSE_850_rhum_081.txt.gz
RH
37 43 24 23 24 32 46 60 66 68 69 68 65 61 55 54 55 54 51 51 53 57 64 69 76 80 74 68 70 70 65 61 63 67 74 76 79 79 79 81 88 88 82
48 42 20 19 20 23 31 43 56 67 68 70 69 65 62 57 59 58 55 56 58 59 63 66 69 71 67 68 66 62 61 66 66 74 79 78 81 85 85 89 91 82 81
59 29 22 20 21 22 26 33 42 56 68 69 71 70 68 62 63 61 58 59 60 66 71 70 65 64 64 62 60 64 76 74 80 81 81 98 85 80 81 85 84 83 84
57 21 17 17 19 21 29 40 44 46 58 67 69 72 74 68 66 69 60 62 66 75 76 65 70 74 61 62 65 74 78 80 79 78 97 99 91 81 84 81 83 84 84
48 34 18 17 18 19 23 34 52 57 62 68 69 70 73 74 70 74 68 63 69 79 71 74 74 72 59 58 65 73 77 78 82 98 96 99 95 84 82 82 86 87 85
50 55 19 17 19 20 21 30 41 56 60 61 64 67 73 77 74 78 74 69 69 74 69 72 77 73 60 65 65 67 74 83 90 92 93 97 93 87 86 86 84 82 86
56 61 20 20 21 20 23 29 42 52 59 61 62 68 76 79 79 83 76 70 70 75 76 80 74 68 66 71 66 67 79 88 96 90 92 98 88 87 86 83 86 87 89
65 60 22 22 23 24 26 32 46 59 60 63 62 74 76 82 83 87 80 75 76 78 80 81 68 64 77 74 72 73 85 93 90 94 86 97 93 92 89 87 88 94 94
65 42 26 24 26 28 31 37 46 60 65 70 66 79 80 90 80 98 96 85 83 88 81 78 69 69 80 78 74 80 83 86 93 93 85 87 90 94 93 92 92 99 96
61 45 46 29 29 31 33 41 52 60 69 72 74 74 76 81 83 87 88 97 93 80 85 83 69 70 87 80 74 82 82 76 82 81 92 85 83 98 100 99 100 99 100
78 82 36 35 34 36 37 56 56 69 72 74 75 78 73 80 83 85 73 88 97 87 90 85 67 71 84 82 78 86 83 68 73 72 81 77 78 76 93 91 98 99 97
68 84 88 45 37 37 90 98 87 88 80 81 86 87 80 81 79 82 68 65 75 87 74 75 74 72 82 86 88 91 71 72 63 62 80 72 72 77 65 51 66 71 73
61 73 84 59 40 38 78 97 97 96 99 97 98 94 85 84 82 93 77 79 76 86 80 76 75 82 91 95 96 79 83 74 62 65 73 75 77 94 77 69 68 70 65
53 64 79 97 85 68 85 93 93 80 87 99 92 94 98 88 88 85 91 88 94 83 76 84 79 87 91 94 97 84 80 65 65 70 75 75 85 91 95 88 77 82 58
44 60 73 89 92 40 29 55 78 91 93 95 98 89 97 95 89 91 88 91 91 78 74 84 84 90 91 97 87 80 74 70 68 75 85 75 86 90 90 97 96 99 78
42 54 70 96 54 37 33 44 64 72 91 79 91 91 99 99 98 97 90 79 79 78 84 94 98 91 90 88 86 76 71 74 77 72 89 89 88 88 90 98 97 99 97
32 49 72 98 66 46 39 38 57 66 93 98 83 84 91 97 98 92 90 80 70 75 90 95 99 90 91 86 77 80 75 76 75 72 83 95 94 92 92 92 98 98 99
30 50 70 94 71 60 52 50 40 62 91 94 89 83 88 89 91 95 92 70 73 77 96 100 96 92 87 77 75 74 74 74 73 74 71 82 92 98 87 89 92 96 97
34 53 71 98 66 53 57 36 40 62 77 99 100 97 87 89 94 97 88 76 76 78 97 99 93 91 86 78 75 70 69 70 75 69 71 77 83 93 94 96 96 94 98
38 56 75 97 97 93 48 42 47 49 79 84 84 90 92 95 99 99 95 84 84 83 98 99 89 91 85 76 75 70 72 70 71 68 72 76 82 85 86 94 88 89 78
42 60 79 94 97 93 53 44 40 51 89 73 84 86 87 90 98 99 99 94 94 88 97 98 88 91 77 71 74 75 80 82 73 69 70 69 71 75 78 90 91 90 48
48 62 78 94 97 84 75 57 45 81 95 89 89 86 85 87 85 94 97 98 98 97 98 99 92 88 80 79 74 84 93 90 88 83 84 74 74 75 78 80 80 80 79
49 64 76 92 97 77 88 73 66 80 97 88 90 92 87 90 90 94 88 94 94 96 96 90 85 86 85 85 74 74 83 76 84 89 93 85 77 78 74 80 82 80 80
48 62 72 86 94 95 88 72 78 98 97 99 97 93 84 95 97 95 96 99 89 98 100 71 87 86 82 80 78 71 66 54 68 84 91 86 86 84 83 78 82 86 83
49 65 74 82 87 92 93 88 92 86 97 99 100 93 90 90 87 84 99 100 100 99 99 96 88 88 85 82 77 73 66 64 65 64 75 87 88 87 87 85 83 84 83
45 64 78 81 83 87 89 88 88 86 95 99 99 95 93 97 86 81 99 100 99 100 98 98 83 77 84 87 78 74 74 72 72 62 55 65 72 84 89 89 64 70 83